• Join FlightAware (Why Join?)
  • Login
  • US Flag 
12:22PM EST


 

Airport Tracker/Info


-or-


 

Live Flight TrackerFlight Track Log ✈ SWA508 ✈ 27-Apr-2014 ✈ KHOU - KMDW

Flight Track Log - Related Links

Times and Time Zones

All times are in EDT time to prevent confusion due to time zone crossing. See the SWA508 flight status page for this flight to view local times or setup timezone preferences in your user account.

Time Position Orientation Groundspeed Altitude Reporting Facility
EDT Latitude Longitude Course Direction KTS MPH feet Rate Location/Type
03:03PM 29.6333 -95.2653 63° Northeast 167 192 700  Level Houston Center
03:04PM 29.6592 -95.2069 63° Northeast 277 319 3,100 2,478 Climbing Houston Center
03:04PM 29.6914 -95.2089 357° North 254 292 4,500 2,478 Climbing Houston Center
03:05PM 29.7689 -95.2361 343° North 288 331 6,900 2,710 Climbing Houston Center
03:06PM 29.8514 -95.2550 349° North 305 351 10,100 2,323 Climbing Houston Center
03:07PM 29.9517 -95.2489 North 358 412 11,700 1,728 Climbing Houston Center
03:08PM 30.0631 -95.2425 North 399 459 13,700 2,256 Climbing Houston Center
03:09PM 30.1797 -95.2356 North 415 478 16,400 2,661 Climbing Houston Center
03:10PM 30.3256 -95.2067 10° North 456 525 19,200 2,516 Climbing Houston Center
03:11PM 30.4447 -95.1617 18° North 455 524 21,600 2,177 Climbing Houston Center
03:12PM 30.5606 -95.0925 27° Northeast 463 533 23,700 1,839 Climbing Houston Center
03:13PM 30.6775 -95.0200 28° Northeast 472 543 25,400 1,584 Climbing Houston Center
03:15PM 30.7972 -94.9450 28° Northeast 486 559 27,000 1,872 Climbing Houston Center
03:16PM 30.9408 -94.8556 28° Northeast 489 563 29,300 1,790 Climbing Houston Center
03:17PM 31.0589 -94.7814 28° Northeast 488 562 30,700 1,258 Climbing Houston Center
03:18PM 31.1861 -94.6986 29° Northeast 488 562 31,900 1,403 Climbing Houston Center
03:19PM 31.3119 -94.6142 30° Northeast 492 566 33,600 1,403 Climbing Houston Center
03:20PM 31.4256 -94.5344 31° Northeast 482 555 34,800 1,056 Climbing Houston Center
03:21PM 31.5408 -94.4544 31° Northeast 482 555 35,800 960 Climbing Houston Center
03:22PM 31.6561 -94.3736 31° Northeast 482 555 36,800 706 Climbing Houston Center
03:22PM 31.7283 -94.3261 29° Northeast 486 559 37,000 118 Climbing Fort Worth Center
03:23PM 31.8653 -94.2297 31° Northeast 480 552 37,000  Level Fort Worth Center
03:24PM 31.9786 -94.1497 31° Northeast 479 551 37,000  Level Fort Worth Center
03:26PM 32.0922 -94.0697 31° Northeast 475 547 37,000  Level Fort Worth Center
03:27PM 32.2028 -93.9911 31° Northeast 475 547 37,000  Level Fort Worth Center
03:28PM 32.3158 -93.9103 31° Northeast 475 547 37,000  Level Fort Worth Center
03:29PM 32.4286 -93.8303 31° Northeast 476 548 37,000  Level Fort Worth Center
03:30PM 32.5650 -93.7311 31° Northeast 477 549 37,000  Level Fort Worth Center
03:31PM 32.6769 -93.6514 31° Northeast 477 549 37,000  Level Fort Worth Center
03:32PM 32.7881 -93.5728 31° Northeast 469 540 37,000  Level Fort Worth Center
03:33PM 32.9003 -93.4914 31° Northeast 471 542 37,000  Level Fort Worth Center
03:34PM 33.0125 -93.4094 31° Northeast 477 549 37,000  Level Fort Worth Center
03:35PM 33.1483 -93.3114 31° Northeast 478 550 37,000  Level Fort Worth Center
03:36PM 33.2631 -93.2278 31° Northeast 485 558 37,000  Level Fort Worth Center
03:37PM 33.3769 -93.1458 31° Northeast 486 559 37,000  Level Fort Worth Center
03:38PM 33.4894 -93.0625 32° Northeast 480 552 37,000  Level Fort Worth Center
03:39PM 33.6019 -92.9800 31° Northeast 479 551 37,000  Level Fort Worth Center
03:40PM 33.6933 -92.9164 30° Northeast 478 550 37,000  Level Memphis Center
03:41PM 33.8089 -92.7869 43° Northeast 479 551 37,000  Level Memphis Center
03:42PM 33.8997 -92.6722 46° Northeast 478 550 37,000  Level Memphis Center
03:43PM 33.9883 -92.5547 48° Northeast 477 549 37,000  Level Memphis Center
03:44PM 34.0700 -92.4322 51° Northeast 475 547 37,000  Level Memphis Center
03:45PM 34.1475 -92.2858 57° Northeast 475 547 37,000  Level Memphis Center
03:46PM 34.2158 -92.1533 58° Northeast 473 544 37,000  Level Memphis Center
03:47PM 34.2858 -92.0228 57° Northeast 470 541 37,000  Level Memphis Center
03:48PM 34.3567 -91.8917 57° Northeast 469 540 37,000  Level Memphis Center
03:49PM 34.4256 -91.7603 58° Northeast 468 539 37,000  Level Memphis Center
03:50PM 34.4972 -91.6267 57° Northeast 465 535 37,000  Level Memphis Center
03:51PM 34.5703 -91.4981 55° Northeast 465 535 37,000  Level Memphis Center
03:52PM 34.6453 -91.3706 54° Northeast 465 535 37,000  Level Memphis Center
03:53PM 34.7364 -91.2161 54° Northeast 466 536 37,000  Level Memphis Center
03:54PM 34.8147 -91.0886 53° Northeast 466 536 37,000  Level Memphis Center
03:55PM 34.8953 -90.9628 52° Northeast 467 537 37,000  Level Memphis Center
03:56PM 34.9750 -90.8400 52° Northeast 465 535 37,000  Level Memphis Center
03:57PM 35.0575 -90.7228 49° Northeast 459 528 37,000  Level Memphis Center
03:58PM 35.1808 -90.6667 20° North 476 548 37,000  Level Memphis Center
03:59PM 35.3139 -90.6600 North 477 549 37,000 98 Level Memphis Center
04:00PM 35.4503 -90.6522 North 480 552 37,200 488 Climbing Memphis Center
04:01PM 35.5867 -90.6381 North 488 562 38,000 390 Climbing Memphis Center
04:02PM 35.7283 -90.6478 357° North 486 559 38,000  Level Memphis Center
04:03PM 35.8631 -90.6581 356° North 485 558 38,000  Level Memphis Center
04:04PM 35.9969 -90.6683 356° North 485 558 38,000  Level Memphis Center
04:05PM 36.1572 -90.6783 357° North 483 556 38,000  Level Memphis Center
04:06PM 36.2908 -90.6781 360° North 480 552 38,000  Level Memphis Center
04:07PM 36.4203 -90.6369 14° North 477 549 38,000  Level Memphis Center
04:08PM 36.5497 -90.5975 14° North 477 549 38,000  Level Memphis Center
04:09PM 36.6844 -90.6097 356° North 483 556 38,000 -341 Level Memphis Center
04:11PM 36.8186 -90.5722 13° North 489 563 37,300 -488 Descending Memphis Center
04:12PM 36.9486 -90.5203 18° North 490 564 37,000 -146 Descending Memphis Center
04:13PM 37.0819 -90.4675 18° North 492 566 37,000  Level Memphis Center
04:14PM 37.2144 -90.4167 17° North 494 568 37,000  Level Kansas City Center
04:15PM 37.3456 -90.3650 17° North 494 568 37,000  Level Kansas City Center
04:16PM 37.4789 -90.3106 18° North 496 571 37,000  Level Kansas City Center
04:17PM 37.6094 -90.2578 18° North 496 571 37,000  Level Kansas City Center
04:18PM 37.7394 -90.2064 17° North 495 570 37,000  Level Kansas City Center
04:19PM 37.8964 -90.1419 18° North 495 570 37,000  Level Kansas City Center
04:20PM 38.0264 -90.0894 18° North 495 570 37,000  Level Kansas City Center
04:21PM 38.1556 -90.0358 18° North 495 570 37,000  Level Kansas City Center
04:22PM 38.2850 -89.9825 18° North 494 568 37,000  Level Kansas City Center
04:23PM 38.4217 -89.9247 18° North 493 567 37,000 -341 Level Kansas City Center
04:24PM 38.5528 -89.8714 18° North 493 567 36,300 -927 Descending Kansas City Center
04:25PM 38.6731 -89.8214 18° North 494 568 35,100 -639 Descending Kansas City Center
04:26PM 38.8339 -89.7556 18° North 503 579 35,000 -49 Descending Kansas City Center
04:27PM 38.9589 -89.7036 18° North 505 581 35,000 -341 Level Kansas City Center
04:28PM 39.0911 -89.6475 18° North 503 579 34,300 -878 Descending Kansas City Center
04:29PM 39.2333 -89.5861 18° North 511 588 33,200 -634 Descending Kansas City Center
04:30PM 39.3656 -89.5281 19° North 508 585 33,000 -492 Descending Kansas City Center
04:31PM 39.4994 -89.4725 18° North 508 585 32,200 -1,024 Descending Kansas City Center
04:32PM 39.6331 -89.4164 18° North 507 583 30,900 -1,268 Descending Kansas City Center
04:33PM 39.7786 -89.3531 18° North 507 583 29,600 -1,869 Descending Kansas City Center
04:34PM 39.9094 -89.2967 18° North 500 575 27,100 -1,268 Descending Kansas City Center
04:35PM 40.0389 -89.2403 18° North 497 572 27,000 -564 Descending Kansas City Center
04:36PM 40.1603 -89.1875 18° North 478 550 26,000 -1,231 Descending Chicago Center
04:37PM 40.2792 -89.1358 18° North 460 529 24,600 -1,355 Descending Chicago Center
04:38PM 40.3897 -89.0681 25° Northeast 457 526 23,200 -1,355 Descending Chicago Center
04:39PM 40.4867 -88.9719 37° Northeast 443 510 21,800 -1,500 Descending Chicago Center
04:40PM 40.6011 -88.8606 36° Northeast 432 497 20,100 -1,548 Descending Chicago Center
04:41PM 40.6958 -88.7736 35° Northeast 404 465 18,600 -1,355 Descending Chicago Center
04:42PM 40.7808 -88.6889 37° Northeast 389 448 17,300 -1,306 Descending Chicago Center
04:43PM 40.8397 -88.5828 54° Northeast 360 414 15,900 -1,500 Descending Chicago Center
04:44PM 40.9011 -88.4675 55° Northeast 384 442 14,200 -1,839 Descending Chicago Center
04:45PM 40.9625 -88.3583 53° Northeast 378 435 12,100 -1,694 Descending Chicago Center
04:46PM 41.0486 -88.2536 43° Northeast 371 427 10,700 -1,065 Descending Chicago Center
04:47PM 41.1439 -88.2367 North 346 398 9,900 -823 Descending Chicago Center
04:48PM 41.2375 -88.2197 North 319 367 9,000 -968 Descending Chicago Center
04:49PM 41.3147 -88.1692 26° Northeast 311 358 7,900 -1,113 Descending Chicago Center
04:50PM 41.3961 -88.1083 29° Northeast 311 358 6,700 -1,065 Descending Chicago Center
04:51PM 41.4689 -88.0550 29° Northeast 303 349 5,700 -1,210 Descending Chicago Center
04:52PM 41.5397 -88.0028 29° Northeast 293 337 4,200 -823 Descending Chicago Center
04:53PM 41.6136 -87.9478 29° Northeast 277 319 4,000 -290 Descending Chicago Center
04:55PM 41.6714 -87.8947 34° Northeast 242 278 3,600 -677 Descending Chicago Center
04:56PM 41.7097 -87.8450 44° Northeast 186 214 2,600 -871 Descending Chicago Center
04:57PM 41.7422 -87.8050 43° Northeast 145 167 1,800 -780 Descending Chicago Center
04:58PM 41.7697 -87.7706 43° Northeast 137 158 1,000 -488 Descending Chicago Center
04:59PM 41.7969 -87.7356 44° Northeast 137 158 800 -194 Descending Chicago Center